FW0868 Weather Reports


time (UTC)temp
C
wind
direction
speed
KPH
gust
KPH
rain 1hr
cm
rain 24hr
cm
rain mn
cm
humidity
%
barometer
mb
20260507055004 11 176 1.6 6.4 0.00 0.00 0.00 91 1020.6
20260507054004 11 178 3.2 11.3 0.00 0.00 0.00 91 1020.8
20260507053005 11 181 1.6 9.7 0.00 0.00 0.00 90 1020.8
20260507052004 11 183 1.6 9.7 0.00 0.00 0.00 90 1020.8
20260507051004 12 173 3.2 9.7 0.00 0.00 0.00 89 1020.6
20260507050005 12 181 1.6 8.0 0.00 0.00 0.00 89 1020.8
20260507044004 12 174 3.2 9.7 0.00 0.00 0.00 87 1020.7
20260507043005 12 169 1.6 16.1 0.00 0.00 0.00 86 1020.7
20260507042004 12 197 0.0 3.2 0.00 0.00 0.00 86 1020.7
20260507041004 12 194 0.0 4.8 0.00 0.00 0.00 86 1020.7
20260507040004 12 169 1.6 8.0 0.00 0.00 0.00 86 1020.6
20260507035004 12 169 1.6 6.4 0.00 0.00 0.00 85 1020.5
20260507034004 12 197 1.6 4.8 0.00 0.00 0.00 85 1020.4
20260507033004 12 176 1.6 8.0 0.00 0.00 0.00 85 1020.4
20260507032004 12 235 1.6 11.3 0.00 0.00 0.00 85 1020.2
20260507031004 13 182 1.6 12.9 0.00 0.00 0.00 84 1020.3
20260507030004 13 178 1.6 8.0 0.00 0.00 0.00 84 1020.2
20260507024004 13 173 4.8 14.5 0.00 0.00 0.00 83 1020.1
20260507023004 13 178 4.8 16.1 0.00 0.00 0.00 83 1020.0
20260507021004 13 171 3.2 12.9 0.00 0.00 0.00 83 1020.0
20260507020005 13 169 3.2 12.9 0.00 0.00 0.00 82 1020.1
20260507015004 13 178 3.2 12.9 0.00 0.00 0.00 81 1020.1
20260507014004 13 191 1.6 11.3 0.00 0.00 0.00 81 1020.0
20260507013004 14 186 1.6 9.7 0.00 0.00 0.00 82 1020.0
20260507012004 14 177 1.6 9.7 0.00 0.00 0.00 81 1020.1
20260507010004 14 191 3.2 16.1 0.00 0.00 0.00 81 1020.0
20260507005004 14 172 3.2 11.3 0.00 0.00 0.00 82 1020.2
20260507004004 13 183 3.2 9.7 0.00 0.00 0.00 82 1020.2
20260507003005 13 179 3.2 12.9 0.00 0.00 0.00 82 1020.1
20260507002003 13 177 4.8 11.3 0.00 0.00 0.00 82 1020.2
20260507001004 13 169 6.4 17.7 0.00 0.00 0.00 82 1020.2
20260507000005 13 165 6.4 16.1 0.00 0.00 0.00 82 1020.2
20260506235004 13 177 6.4 16.1 0.00 0.00 0.00 82 1020.2
20260506234004 14 182 4.8 19.3 0.00 0.00 0.00 82 1020.3
20260506233004 13 166 6.4 14.5 0.00 0.00 0.00 82 1020.2
20260506232004 13 171 6.4 14.5 0.00 0.00 0.00 82 1020.3
20260506231004 13 174 3.2 14.5 0.00 0.00 0.00 81 1020.3
20260506230004 14 178 3.2 16.1 0.00 0.00 0.00 81 1020.3
20260506225003 13 162 6.4 17.7 0.00 0.00 0.00 81 1020.2
20260506224004 14 166 4.8 17.7 0.00 0.00 0.00 79 1020.3
20260506223004 14 179 3.2 12.9 0.00 0.00 0.00 80 1020.3
20260506222004 14 199 4.8 16.1 0.00 0.00 0.00 79 1020.4
20260506221004 14 178 6.4 19.3 0.00 0.00 0.00 81 1020.5
20260506220004 14 171 8.0 20.9 0.00 0.00 0.00 80 1020.6
20260506215004 14 164 8.0 17.7 0.00 0.00 0.00 81 1020.3
20260506214004 14 188 6.4 17.7 0.00 0.00 0.00 80 1020.4
20260506211004 14 181 6.4 17.7 0.00 0.00 0.00 81 1020.6
20260506210004 13 176 3.2 16.1 0.00 0.00 0.00 81 1020.5
20260506205004 13 173 4.8 12.9 0.00 0.00 0.00 81 1020.5
20260506204005 14 173 3.2 12.9 0.00 0.00 0.00 80 1020.5
20260506202004 13 175 4.8 14.5 0.00 0.00 0.00 81 1020.5
20260506201004 13 167 4.8 16.1 0.00 0.00 0.00 81 1020.3
20260506200004 13 190 3.2 11.3 0.00 0.00 0.00 81 1020.4
20260506195004 13 187 3.2 11.3 0.00 0.00 0.00 82 1020.2
20260506194004 13 172 4.8 16.1 0.00 0.00 0.00 81 1020.2
20260506193004 13 178 3.2 9.7 0.00 0.00 0.00 82 1020.2
20260506192004 13 174 4.8 12.9 0.00 0.00 0.00 82 1020.0
20260506191003 13 192 3.2 12.9 0.00 0.00 0.00 81 1020.1
20260506190005 13 173 3.2 17.7 0.00 0.00 0.00 84 1020.1
20260506185004 13 176 4.8 12.9 0.00 0.00 0.00 83 1020.2
20260506184004 13 173 4.8 12.9 0.00 0.00 0.00 84 1020.1
20260506182004 13 177 3.2 9.7 0.00 0.00 0.00 85 1020.3
20260506181004 13 165 4.8 14.5 0.00 0.00 0.00 86 1019.9
20260506180005 12 168 4.8 12.9 0.00 0.00 0.00 87 1019.7
20260506175004 12 163 3.2 11.3 0.00 0.00 0.00 88 1019.9
20260506174004 12 166 3.2 11.3 0.00 0.00 0.00 89 1019.9
20260506172003 12 182 4.8 14.5 0.00 0.00 0.00 90 1019.9
20260506171004 12 195 3.2 8.0 0.00 0.00 0.00 90 1020.0
20260506170003 12 184 1.6 8.0 0.00 0.00 0.00 91 1019.9
20260506165005 12 174 3.2 9.7 0.00 0.00 0.00 91 1020.0
20260506164004 12 176 3.2 9.7 0.00 0.00 0.00 91 1019.9